This is the latest recevied weather packets stored in our database for station/object KA9CBS. If no packets are shown the sender has not sent any weather packets the latest 10 day(s).
| Time | Temp. | Humidity | Pressure | Rain* | Wind** | Luminosity | Snow |
|---|---|---|---|---|---|---|---|
| 1778085265 | 12.78° C | 81% | 1017.8 hPa | 0 mm | - | 304 W/m² | - |
| 1778084955 | 12.22° C | 83% | 1017.6 hPa | 0 mm | - | 333 W/m² | - |
| 1778084653 | 12.22° C | 81% | 1017.5 hPa | 0 mm | - | 342 W/m² | - |
| 1778084350 | 12.22° C | 77% | 1017.6 hPa | 0 mm | - | 359 W/m² | - |
| 1778084049 | 11.67° C | 82% | 1017.6 hPa | 0 mm | - | 354 W/m² | - |
| 1778083745 | 12.22° C | 82% | 1017.4 hPa | 0 mm | - | 363 W/m² | - |
| 1778083442 | 11.67° C | 83% | 1017.1 hPa | 0 mm | - | 348 W/m² | - |
| 1778083140 | 11.67° C | 81% | 1016.9 hPa | 0 mm | - | 394 W/m² | - |
| 1778082837 | 11.67° C | 81% | 1017 hPa | 0 mm | - | 357 W/m² | - |
| 1778081720 | 11.11° C | 88% | 1016.9 hPa | 0 mm | - | 290 W/m² | - |
| 1778081417 | 11.11° C | 87% | 1017 hPa | 0 mm | - | 317 W/m² | - |
| 1778081114 | 10.56° C | 87% | 1017 hPa | 0 mm | - | 297 W/m² | - |
| 1778080812 | 10.56° C | 88% | 1017 hPa | 0 mm | - | 235 W/m² | - |
| 1778080509 | 10.56° C | 90% | 1017.1 hPa | 0 mm | - | 166 W/m² | - |
| 1778080207 | 10.56° C | 90% | 1017.2 hPa | 0 mm | - | 131 W/m² | - |
| 1778079903 | 10.56° C | 91% | 1017.2 hPa | 0 mm | - | 124 W/m² | - |
| 1778079600 | 10.56° C | 90% | 1017.4 hPa | 0 mm | - | 119 W/m² | - |
| 1778079296 | 10° C | 90% | 1017.1 hPa | 0 mm | - | 96 W/m² | - |
| 1778078994 | 10° C | 91% | 1017.2 hPa | 0 mm | - | 113 W/m² | - |
| 1778078690 | 10° C | 92% | 1017.1 hPa | 0 mm | - | 118 W/m² | - |
| 1778078388 | 10° C | 93% | 1016.8 hPa | 0 mm | - | 113 W/m² | - |
| 1778078085 | 10° C | 94% | 1016.9 hPa | 0 mm | - | 120 W/m² | - |
| 1778077784 | 10° C | 94% | 1016.6 hPa | 0 mm | - | 107 W/m² | - |
| 1778077481 | 9.44° C | 95% | 1016.7 hPa | 0 mm | - | 117 W/m² | - |
| 1778077179 | 9.44° C | 95% | 1016.2 hPa | 0 mm | - | 151 W/m² | - |
* Rain latest hour (hover to see other rain measurements)
** Current wind speed in m/s (hover to see current wind gust speed)